When you browse on this site, cookies collect data to enhance your experience and personalize the content and advertising you see.
Visit our Privacy Policy to learn more. By continuing to use the site, you agree to this use of cookies and data.
  • In Latvia
  • List of Countries
  • For 7 days
  • Water Temperature
  • Weather Map
  • Weather Widgets
  • user-avatar
    Login

    Hourly Weather Krynica-Zdrój

    Today, 2 June, Tuesday

    Time Temperature Precipitation Wind Pressure Humidity
    00:00 +5°C° 0 mm 1 mps 677 mmHg 91%
    01:00 +5°C° 0 mm 1 mps 677 mmHg 90%
    02:00 +4°C° 0.1 mm 1 mps 676 mmHg 92%
    03:00 +4°C° 0.1 mm 1 mps 676 mmHg 93%
    04:00 +3°C° 0.1 mm 1 mps 676 mmHg 95%
    05:00 +4°C° 0.7 mm 1 mps 676 mmHg 95%
    06:00 +5°C° 0.7 mm 1 mps 676 mmHg 95%
    07:00 +5°C° 0.7 mm 1 mps 676 mmHg 95%
    08:00 +5°C° 0.4 mm 2 mps 676 mmHg 91%
    09:00 +6°C° 0.4 mm 2 mps 676 mmHg 86%
    10:00 +8°C° 0.4 mm 2 mps 676 mmHg 82%
    11:00 +9°C° 0.1 mm 2 mps 676 mmHg 75%
    12:00 +10°C° 0.1 mm 3 mps 676 mmHg 68%
    13:00 +11°C° 0.1 mm 3 mps 676 mmHg 61%
    14:00 +11°C° 0.2 mm 3 mps 676 mmHg 63%
    15:00 +11°C° 0.2 mm 3 mps 676 mmHg 65%
    16:00 +10°C° 0.2 mm 3 mps 675 mmHg 67%
    17:00 +9°C° 0.1 mm 3 mps 675 mmHg 73%
    18:00 +8°C° 0.1 mm 2 mps 674 mmHg 79%
    19:00 +8°C° 0.1 mm 1 mps 674 mmHg 86%
    20:00 +6°C° 0 mm 1 mps 674 mmHg 88%
    21:00 +5°C° 0 mm 1 mps 674 mmHg 91%
    22:00 +4°C° 0 mm 1 mps 673 mmHg 94%
    23:00 +4°C° 0 mm 1 mps 673 mmHg 94%

    Tomorrow, 3 June, Wednesday

    Time Temperature Precipitation Wind Pressure Humidity
    00:00 +4°C° 0 mm 1 mps 673 mmHg 94%
    01:00 +3°C° 0 mm 1 mps 672 mmHg 94%
    02:00 +3°C° 0 mm 1 mps 672 mmHg 94%
    03:00 +3°C° 0 mm 1 mps 672 mmHg 95%
    04:00 +3°C° 0 mm 1 mps 671 mmHg 95%
    05:00 +5°C° 0 mm 1 mps 672 mmHg 86%
    06:00 +7°C° 0 mm 1 mps 672 mmHg 78%
    07:00 +10°C° 0 mm 1 mps 672 mmHg 69%
    08:00 +11°C° 0 mm 1 mps 672 mmHg 62%
    09:00 +12°C° 0 mm 1 mps 673 mmHg 55%
    10:00 +14°C° 0 mm 1 mps 673 mmHg 48%
    11:00 +14°C° 0 mm 1 mps 672 mmHg 47%
    12:00 +15°C° 0 mm 1 mps 672 mmHg 46%
    13:00 +15°C° 0 mm 1 mps 672 mmHg 46%
    14:00 +15°C° 0.1 mm 1 mps 672 mmHg 50%
    15:00 +14°C° 0.1 mm 1 mps 671 mmHg 55%
    16:00 +14°C° 0.1 mm 1 mps 671 mmHg 60%
    17:00 +12°C° 0.2 mm 1 mps 671 mmHg 69%
    18:00 +11°C° 0.2 mm 1 mps 670 mmHg 77%
    19:00 +9°C° 0.2 mm 1 mps 670 mmHg 86%
    20:00 +8°C° 0 mm 1 mps 670 mmHg 88%
    21:00 +7°C° 0 mm 1 mps 670 mmHg 90%
    22:00 +6°C° 0 mm 1 mps 669 mmHg 91%
    23:00 +6°C° 0 mm 1 mps 669 mmHg 92%

    Day after tomorrow, 4 June, Thursday

    Time Temperature Precipitation Wind Pressure Humidity
    00:00 +6°C° 0 mm 1 mps 669 mmHg 92%
    01:00 +4°C° 0 mm 0 mps 669 mmHg 92%
    02:00 +5°C° 0 mm 1 mps 669 mmHg 92%
    03:00 +5°C° 0 mm 1 mps 668 mmHg 92%
    04:00 +5°C° 0 mm 1 mps 668 mmHg 93%
    05:00 +7°C° 0 mm 1 mps 669 mmHg 87%
    06:00 +10°C° 0 mm 1 mps 669 mmHg 81%
    07:00 +12°C° 0 mm 1 mps 669 mmHg 74%
    08:00 +14°C° 0 mm 1 mps 670 mmHg 67%
    09:00 +16°C° 0 mm 2 mps 670 mmHg 59%
    10:00 +17°C° 0 mm 2 mps 670 mmHg 52%
    11:00 +17°C° 0.4 mm 2 mps 670 mmHg 55%
    12:00 +17°C° 0.4 mm 2 mps 670 mmHg 59%
    13:00 +17°C° 0.4 mm 3 mps 670 mmHg 63%
    14:00 +17°C° 0.2 mm 3 mps 669 mmHg 65%
    15:00 +17°C° 0.2 mm 2 mps 669 mmHg 68%
    16:00 +17°C° 0.2 mm 2 mps 668 mmHg 70%
    17:00 +15°C° 0.2 mm 2 mps 668 mmHg 78%
    18:00 +14°C° 0.2 mm 2 mps 667 mmHg 86%
    19:00 +13°C° 0.2 mm 1 mps 667 mmHg 93%
    20:00 +13°C° 0.2 mm 1 mps 667 mmHg 94%
    21:00 +12°C° 0.2 mm 1 mps 667 mmHg 96%
    22:00 +12°C° 0.2 mm 1 mps 666 mmHg 97%
    23:00 +12°C° 0 mm 2 mps 666 mmHg 97%

    5 June, Friday

    Time Temperature Precipitation Wind Pressure Humidity
    00:00 +10°C° 0 mm 2 mps 666 mmHg 97%
    01:00 +10°C° 0 mm 2 mps 666 mmHg 96%
    02:00 +10°C° 0.5 mm 2 mps 666 mmHg 97%
    03:00 +10°C° 0.5 mm 2 mps 665 mmHg 97%
    04:00 +10°C° 0.5 mm 3 mps 665 mmHg 98%
    05:00 +10°C° 0.4 mm 3 mps 666 mmHg 97%
    06:00 +11°C° 0.4 mm 3 mps 666 mmHg 96%
    07:00 +11°C° 0.4 mm 3 mps 666 mmHg 95%
    08:00 +11°C° 0 mm 3 mps 666 mmHg 92%
    09:00 +12°C° 0 mm 3 mps 666 mmHg 89%
    10:00 +13°C° 0 mm 3 mps 667 mmHg 86%
    11:00 +13°C° 0.5 mm 3 mps 666 mmHg 90%
    12:00 +13°C° 0.5 mm 2 mps 666 mmHg 94%
    13:00 +13°C° 0.5 mm 2 mps 666 mmHg 97%
    14:00 +13°C° 1.3 mm 2 mps 666 mmHg 97%
    15:00 +13°C° 1.3 mm 2 mps 666 mmHg 98%
    16:00 +13°C° 1.3 mm 2 mps 666 mmHg 98%
    17:00 +12°C° 2.5 mm 2 mps 666 mmHg 98%
    18:00 +12°C° 2.5 mm 2 mps 666 mmHg 98%
    19:00 +11°C° 2.5 mm 1 mps 666 mmHg 98%
    20:00 +11°C° 0.5 mm 1 mps 667 mmHg 98%
    21:00 +11°C° 0.5 mm 1 mps 667 mmHg 98%
    22:00 +10°C° 0.5 mm 1 mps 667 mmHg 98%
    23:00 +10°C° 0.9 mm 1 mps 667 mmHg 99%

    6 June, Saturday

    Time Temperature Precipitation Wind Pressure Humidity
    00:00 +10°C° 0.9 mm 1 mps 667 mmHg 99%
    01:00 +9°C° 0.9 mm 0 mps 668 mmHg 99%
    02:00 +10°C° 0.2 mm 1 mps 668 mmHg 99%
    03:00 +10°C° 0.2 mm 1 mps 668 mmHg 98%
    04:00 +9°C° 0.2 mm 1 mps 668 mmHg 98%
    05:00 +9°C° 1 mm 1 mps 668 mmHg 98%
    06:00 +9°C° 1 mm 1 mps 669 mmHg 98%
    07:00 +8°C° 1 mm 2 mps 669 mmHg 98%
    08:00 +8°C° 1.6 mm 2 mps 669 mmHg 97%
    09:00 +7°C° 1.6 mm 2 mps 670 mmHg 96%
    10:00 +7°C° 1.6 mm 2 mps 670 mmHg 95%
    11:00 +8°C° 0.3 mm 2 mps 671 mmHg 88%
    12:00 +9°C° 0.3 mm 2 mps 671 mmHg 80%
    13:00 +11°C° 0.3 mm 1 mps 672 mmHg 73%
    14:00 +12°C° 0.1 mm 1 mps 672 mmHg 70%
    15:00 +13°C° 0.1 mm 2 mps 673 mmHg 66%
    16:00 +13°C° 0.1 mm 2 mps 673 mmHg 63%
    17:00 +12°C° 0.1 mm 2 mps 673 mmHg 70%
    18:00 +11°C° 0.1 mm 1 mps 673 mmHg 76%
    19:00 +10°C° 0.1 mm 1 mps 673 mmHg 83%
    20:00 +9°C° 0 mm 1 mps 673 mmHg 86%
    21:00 +8°C° 0 mm 1 mps 673 mmHg 88%
    22:00 +6°C° 0 mm 1 mps 673 mmHg 91%
    23:00 +6°C° 0 mm 1 mps 673 mmHg 91%

    7 June, Sunday

    Time Temperature Precipitation Wind Pressure Humidity
    00:00 +6°C° 0 mm 1 mps 673 mmHg 92%
    01:00 +5°C° 0 mm 1 mps 673 mmHg 92%
    02:00 +6°C° 0 mm 1 mps 673 mmHg 90%
    03:00 +6°C° 0 mm 1 mps 673 mmHg 89%
    04:00 +6°C° 0 mm 1 mps 673 mmHg 87%
    05:00 +8°C° 0 mm 1 mps 674 mmHg 81%
    06:00 +10°C° 0 mm 1 mps 675 mmHg 75%
    07:00 +13°C° 0 mm 1 mps 675 mmHg 69%
    08:00 +14°C° 0 mm 2 mps 676 mmHg 63%
    09:00 +16°C° 0 mm 2 mps 676 mmHg 57%
    10:00 +18°C° 0 mm 2 mps 677 mmHg 52%
    11:00 +18°C° 0.1 mm 3 mps 677 mmHg 55%
    12:00 +18°C° 0.1 mm 3 mps 676 mmHg 58%
    13:00 +18°C° 0.1 mm 3 mps 676 mmHg 61%
    14:00 +18°C° 0.2 mm 3 mps 676 mmHg 63%
    15:00 +18°C° 0.2 mm 3 mps 676 mmHg 64%
    16:00 +18°C° 0.2 mm 3 mps 676 mmHg 65%
    17:00 +16°C° 0.2 mm 2 mps 676 mmHg 72%
    18:00 +15°C° 0.2 mm 2 mps 675 mmHg 80%
    19:00 +13°C° 0.2 mm 1 mps 675 mmHg 87%
    20:00 +13°C° 0 mm 1 mps 675 mmHg 89%
    21:00 +12°C° 0 mm 1 mps 675 mmHg 90%
    22:00 +11°C° 0 mm 1 mps 675 mmHg 92%
    23:00 +11°C° 0 mm 1 mps 675 mmHg 92%
    Show more